Погода в Панфилове

Россия / Владимирская область     55°30′58″N   42°04′47″E
темп.,
°C
ветер,
м/с
пор.,
м/с
влажн.,
%
обл.,
%
осадки,
мм/ч
давл.,
гПа
погр.,
м
26 июля, пн
пн2600:00+13зюз33627 0.0 102226
03:00+12з227014 0.0 102319
06:00+16юз255994 0.0 1023124
09:00+22зюз334370 0.0 1023597
12:00+24зюз343426 0.0 10232053
15:00+24зсз353369 0.0 10222227
18:00+24зсз353913 0.0 10211132
21:00+18зюз335811 0.0 102124
27 июля, вт
вт2700:00+18зюз365645 0.0 102196
03:00+16з346139 0.0 102162
06:00+17з366020 0.0 1021178
09:00+23сз34485 0.0 1021671
12:00+27сз34347 0.0 10202450
15:00+27сз343495 0.0 10192374
18:00+23ю124764 0.0 1018282
21:00+19с226260 0.0 101824
28 июля, ср
ср2800:00+16св117976 0.4 101914
03:00+16ююз227810 0.8 101833
06:00+17юв00767 0.2 101742
09:00+23юз11531 0.2 1016529
12:00+28з34386 0.0 10151838
15:00+26зюз364579 0.0 1013235
18:00+23зюз3862100 0.6 1012270
21:00+20юз3566100 0.8 101184
29 июля, чт
чт2900:00+17сз1194100 1.8 101116
03:00+17вюв4796100 6.1 1009326
06:00+16юв4996100 1.8 1007417
09:00+17ю2595100 4.3 1006415
12:00+20з4685100 0.0 1005658
15:00+20з5118699 0.6 1005725
18:00+20з5108555 0.4 1005737
21:00+18з410941 0.6 1005300
30 июля, пт
пт3000:00+17з37952 0.0 1006138
03:00+17зюз38921 0.0 1007187
06:00+17зсз410850 0.0 1008243
09:00+24з57540 0.0 1009732
12:00+27зсз59405 0.0 10092162
15:00+29зсз693323 0.0 10082863
18:00+28зсз364113 0.0 10081162
21:00+21зюз226051 0.0 100912